<?xml version="1.0" encoding="UTF-8" standalone="no" ?>
<gpx xmlns="http://www.topografix.com/GPX/1/1" xmlns:xsi="http://www.w3.org/2001/XMLSchema-instance" xsi:schemaLocation="http://www.topografix.com/GPX/1/1 http://www.topografix.com/GPX/1/1/gpx.xsd" version="1.1" creator="VisuGPX - https://www.visugpx.com">
  <metadata>
    <name>les sieges</name>
  </metadata>
  <trk>
    <name><![CDATA[les sieges]]></name>
    <trkseg>
      <trkpt lat="48.18057" lon="3.51733">
        <ele>128</ele>
        <time>2020-10-15T09:46:42Z</time>
      </trkpt>
      <trkpt lat="48.17988" lon="3.51685">
        <ele>129.6</ele>
        <time>2020-10-15T09:46:42Z</time>
      </trkpt>
      <trkpt lat="48.17959" lon="3.5169">
        <ele>130.5</ele>
        <time>2020-10-15T09:46:42Z</time>
      </trkpt>
      <trkpt lat="48.18028" lon="3.51101">
        <ele>133.6</ele>
        <time>2020-10-15T09:46:42Z</time>
      </trkpt>
      <trkpt lat="48.18025" lon="3.50894">
        <ele>132</ele>
        <time>2020-10-15T09:46:42Z</time>
      </trkpt>
      <trkpt lat="48.18048" lon="3.50752">
        <ele>132.9</ele>
        <time>2020-10-15T09:46:42Z</time>
      </trkpt>
      <trkpt lat="48.1806" lon="3.50593">
        <ele>137.4</ele>
        <time>2020-10-15T09:46:42Z</time>
      </trkpt>
      <trkpt lat="48.18037" lon="3.50464">
        <ele>139.4</ele>
        <time>2020-10-15T09:46:42Z</time>
      </trkpt>
      <trkpt lat="48.17985" lon="3.50314">
        <ele>141.7</ele>
        <time>2020-10-15T09:46:42Z</time>
      </trkpt>
      <trkpt lat="48.17994" lon="3.49953">
        <ele>137.8</ele>
        <time>2020-10-15T09:46:42Z</time>
      </trkpt>
      <trkpt lat="48.18002" lon="3.49858">
        <ele>140.3</ele>
        <time>2020-10-15T09:46:42Z</time>
      </trkpt>
      <trkpt lat="48.17782" lon="3.49819">
        <ele>145.9</ele>
        <time>2020-10-15T09:46:42Z</time>
      </trkpt>
      <trkpt lat="48.17701" lon="3.49819">
        <ele>147.4</ele>
        <time>2020-10-15T09:46:42Z</time>
      </trkpt>
      <trkpt lat="48.17633" lon="3.49729">
        <ele>150.6</ele>
        <time>2020-10-15T09:46:42Z</time>
      </trkpt>
      <trkpt lat="48.17661" lon="3.49385">
        <ele>181.1</ele>
        <time>2020-10-15T09:46:42Z</time>
      </trkpt>
      <trkpt lat="48.17495" lon="3.49329">
        <ele>178.1</ele>
        <time>2020-10-15T09:46:42Z</time>
      </trkpt>
      <trkpt lat="48.17532" lon="3.48856">
        <ele>180.3</ele>
        <time>2020-10-15T09:46:42Z</time>
      </trkpt>
      <trkpt lat="48.17082" lon="3.48758">
        <ele>161.1</ele>
        <time>2020-10-15T09:46:42Z</time>
      </trkpt>
      <trkpt lat="48.17082" lon="3.48672">
        <ele>153.5</ele>
        <time>2020-10-15T09:46:42Z</time>
      </trkpt>
      <trkpt lat="48.16962" lon="3.48783">
        <ele>149.2</ele>
        <time>2020-10-15T09:46:42Z</time>
      </trkpt>
      <trkpt lat="48.1679" lon="3.48955">
        <ele>156.3</ele>
        <time>2020-10-15T09:46:42Z</time>
      </trkpt>
      <trkpt lat="48.16646" lon="3.4917">
        <ele>159.1</ele>
        <time>2020-10-15T09:46:42Z</time>
      </trkpt>
      <trkpt lat="48.16529" lon="3.49342">
        <ele>164.6</ele>
        <time>2020-10-15T09:46:42Z</time>
      </trkpt>
      <trkpt lat="48.16385" lon="3.49506">
        <ele>163.8</ele>
        <time>2020-10-15T09:46:42Z</time>
      </trkpt>
      <trkpt lat="48.16314" lon="3.4948">
        <ele>153.9</ele>
        <time>2020-10-15T09:46:42Z</time>
      </trkpt>
      <trkpt lat="48.16208" lon="3.49467">
        <ele>142.3</ele>
        <time>2020-10-15T09:46:42Z</time>
      </trkpt>
      <trkpt lat="48.16122" lon="3.49407">
        <ele>147.2</ele>
        <time>2020-10-15T09:46:42Z</time>
      </trkpt>
      <trkpt lat="48.16067" lon="3.49368">
        <ele>149.7</ele>
        <time>2020-10-15T09:46:42Z</time>
      </trkpt>
      <trkpt lat="48.16021" lon="3.49261">
        <ele>144.8</ele>
        <time>2020-10-15T09:46:42Z</time>
      </trkpt>
      <trkpt lat="48.15952" lon="3.4923">
        <ele>140.9</ele>
        <time>2020-10-15T09:46:42Z</time>
      </trkpt>
      <trkpt lat="48.15812" lon="3.49295">
        <ele>132.4</ele>
        <time>2020-10-15T09:46:42Z</time>
      </trkpt>
      <trkpt lat="48.15783" lon="3.49342">
        <ele>131.2</ele>
        <time>2020-10-15T09:46:42Z</time>
      </trkpt>
      <trkpt lat="48.15749" lon="3.49325">
        <ele>129.7</ele>
        <time>2020-10-15T09:46:42Z</time>
      </trkpt>
      <trkpt lat="48.15792" lon="3.49428">
        <ele>133.4</ele>
        <time>2020-10-15T09:46:42Z</time>
      </trkpt>
      <trkpt lat="48.1578" lon="3.49471">
        <ele>135.8</ele>
        <time>2020-10-15T09:46:42Z</time>
      </trkpt>
      <trkpt lat="48.1574" lon="3.49501">
        <ele>140.5</ele>
        <time>2020-10-15T09:46:42Z</time>
      </trkpt>
      <trkpt lat="48.15729" lon="3.49647">
        <ele>150.4</ele>
        <time>2020-10-15T09:46:42Z</time>
      </trkpt>
      <trkpt lat="48.15709" lon="3.49785">
        <ele>160.5</ele>
        <time>2020-10-15T09:46:42Z</time>
      </trkpt>
      <trkpt lat="48.15703" lon="3.49858">
        <ele>165.9</ele>
        <time>2020-10-15T09:46:42Z</time>
      </trkpt>
      <trkpt lat="48.15651" lon="3.49996">
        <ele>176.9</ele>
        <time>2020-10-15T09:46:42Z</time>
      </trkpt>
      <trkpt lat="48.15617" lon="3.504">
        <ele>190.2</ele>
        <time>2020-10-15T09:46:42Z</time>
      </trkpt>
      <trkpt lat="48.15554" lon="3.50675">
        <ele>195.2</ele>
        <time>2020-10-15T09:46:42Z</time>
      </trkpt>
      <trkpt lat="48.15585" lon="3.50744">
        <ele>197.8</ele>
        <time>2020-10-15T09:46:42Z</time>
      </trkpt>
      <trkpt lat="48.15462" lon="3.51157">
        <ele>202.1</ele>
        <time>2020-10-15T09:46:42Z</time>
      </trkpt>
      <trkpt lat="48.15448" lon="3.5141">
        <ele>208.3</ele>
        <time>2020-10-15T09:46:42Z</time>
      </trkpt>
      <trkpt lat="48.15491" lon="3.51784">
        <ele>211.4</ele>
        <time>2020-10-15T09:46:42Z</time>
      </trkpt>
      <trkpt lat="48.15594" lon="3.51943">
        <ele>217.4</ele>
        <time>2020-10-15T09:46:42Z</time>
      </trkpt>
      <trkpt lat="48.15585" lon="3.52016">
        <ele>217</ele>
        <time>2020-10-15T09:46:42Z</time>
      </trkpt>
      <trkpt lat="48.15571" lon="3.52158">
        <ele>214.8</ele>
        <time>2020-10-15T09:46:42Z</time>
      </trkpt>
      <trkpt lat="48.15439" lon="3.52274">
        <ele>215</ele>
        <time>2020-10-15T09:46:42Z</time>
      </trkpt>
      <trkpt lat="48.15339" lon="3.52313">
        <ele>212.9</ele>
        <time>2020-10-15T09:46:42Z</time>
      </trkpt>
      <trkpt lat="48.1539" lon="3.52842">
        <ele>209</ele>
        <time>2020-10-15T09:46:42Z</time>
      </trkpt>
      <trkpt lat="48.15448" lon="3.52889">
        <ele>209</ele>
        <time>2020-10-15T09:46:42Z</time>
      </trkpt>
      <trkpt lat="48.15448" lon="3.52889">
        <ele>209</ele>
        <time>2020-10-15T09:46:42Z</time>
      </trkpt>
      <trkpt lat="48.15462" lon="3.52838">
        <ele>208.5</ele>
        <time>2020-10-15T09:46:42Z</time>
      </trkpt>
      <trkpt lat="48.15511" lon="3.53061">
        <ele>203.3</ele>
        <time>2020-10-15T09:46:42Z</time>
      </trkpt>
      <trkpt lat="48.15551" lon="3.53255">
        <ele>181</ele>
        <time>2020-10-15T09:46:42Z</time>
      </trkpt>
      <trkpt lat="48.15927" lon="3.53074">
        <ele>169.2</ele>
        <time>2020-10-15T09:46:42Z</time>
      </trkpt>
      <trkpt lat="48.16113" lon="3.52941">
        <ele>162.9</ele>
        <time>2020-10-15T09:46:42Z</time>
      </trkpt>
      <trkpt lat="48.16153" lon="3.53147">
        <ele>174.9</ele>
        <time>2020-10-15T09:46:42Z</time>
      </trkpt>
      <trkpt lat="48.16202" lon="3.53177">
        <ele>171.6</ele>
        <time>2020-10-15T09:46:42Z</time>
      </trkpt>
      <trkpt lat="48.16253" lon="3.53302">
        <ele>177</ele>
        <time>2020-10-15T09:46:42Z</time>
      </trkpt>
      <trkpt lat="48.16285" lon="3.53259">
        <ele>176.4</ele>
        <time>2020-10-15T09:46:42Z</time>
      </trkpt>
      <trkpt lat="48.16291" lon="3.53323">
        <ele>181</ele>
        <time>2020-10-15T09:46:42Z</time>
      </trkpt>
      <trkpt lat="48.16514" lon="3.53319">
        <ele>187</ele>
        <time>2020-10-15T09:46:42Z</time>
      </trkpt>
      <trkpt lat="48.16583" lon="3.53603">
        <ele>201.7</ele>
        <time>2020-10-15T09:46:42Z</time>
      </trkpt>
      <trkpt lat="48.16689" lon="3.53487">
        <ele>197.8</ele>
        <time>2020-10-15T09:46:42Z</time>
      </trkpt>
      <trkpt lat="48.16784" lon="3.53341">
        <ele>192.3</ele>
        <time>2020-10-15T09:46:42Z</time>
      </trkpt>
      <trkpt lat="48.1697" lon="3.53577">
        <ele>204</ele>
        <time>2020-10-15T09:46:42Z</time>
      </trkpt>
      <trkpt lat="48.17214" lon="3.53203">
        <ele>199.1</ele>
        <time>2020-10-15T09:46:42Z</time>
      </trkpt>
      <trkpt lat="48.17294" lon="3.53031">
        <ele>199</ele>
        <time>2020-10-15T09:46:42Z</time>
      </trkpt>
      <trkpt lat="48.17484" lon="3.5285">
        <ele>192.2</ele>
        <time>2020-10-15T09:46:42Z</time>
      </trkpt>
      <trkpt lat="48.1765" lon="3.52691">
        <ele>181.9</ele>
        <time>2020-10-15T09:46:42Z</time>
      </trkpt>
      <trkpt lat="48.1781" lon="3.52472">
        <ele>169.8</ele>
        <time>2020-10-15T09:46:42Z</time>
      </trkpt>
      <trkpt lat="48.17919" lon="3.5236">
        <ele>156.6</ele>
        <time>2020-10-15T09:46:42Z</time>
      </trkpt>
      <trkpt lat="48.17959" lon="3.52292">
        <ele>147.6</ele>
        <time>2020-10-15T09:46:42Z</time>
      </trkpt>
      <trkpt lat="48.18023" lon="3.52193">
        <ele>133.7</ele>
        <time>2020-10-15T09:46:42Z</time>
      </trkpt>
      <trkpt lat="48.18068" lon="3.52184">
        <ele>130.4</ele>
        <time>2020-10-15T09:46:42Z</time>
      </trkpt>
      <trkpt lat="48.18077" lon="3.52042">
        <ele>127.5</ele>
        <time>2020-10-15T09:46:42Z</time>
      </trkpt>
      <trkpt lat="48.18086" lon="3.51887">
        <ele>126.9</ele>
        <time>2020-10-15T09:46:42Z</time>
      </trkpt>
      <trkpt lat="48.18088" lon="3.51741">
        <ele>126.8</ele>
        <time>2020-10-15T09:46:42Z</time>
      </trkpt>
      <trkpt lat="48.18057" lon="3.51733">
        <ele>128</ele>
        <time>2020-10-15T09:46:42Z</time>
      </trkpt>
    </trkseg>
  </trk>
</gpx>